Location: Jastrzębia Góra
(54.8312°N, 18.3037°E)
Time: 14:23:21
(UTC+01:00)

ISS - Pass Details

Date: 28 January 2019
Orbit: 403 x 411 km, 51.6° (Epoch: 20 February)

Event Time Altitude Azimuth Distance (km) Brightness Sun altitude
Rises 17:31:44 0° 227° (SW) 2,328 1.3 -10.8°
Reaches altitude 10° 17:34:00 10° 214° (SW) 1,472 -0.2 -11.1°
Maximum altitude 17:36:48 26° 156° (SSE) 853 -2.3 -11.5°
Enters shadow 17:38:44 16° 108° (ESE) 1,190 -2.0 -11.8°
